Calls for Service

Disclaimer: This information is not intended to be used as official crime data. This program does not provide information about all crimes, and excludes specific incidents such as sexual assaults and child abuse. The City of Conway Police Department makes every effort to produce and publish current and accurate information. No warranties, expressed or implied, are provided for the data herein, its use, or its interpretation. The services provided are for informational purposes only and should not be relied on for any type of legal action.

Loading calls...
Showing calls from previous 10 days
Call Number Case Number Address Call Time Incident Type
20-0400822 20 MANCHESTER DR 2020-04-08 05:46:47.510 BARKING DOG COMPLAINT
20-0400820 406 6TH ST 2020-04-08 05:03:43.480 AGENCY ASSIST
20-0400819 450 SKYLINE DR 2020-04-08 04:49:29.240 CHECK ON THE WELFARE
20-0400818 1940 AMELIA DR 2020-04-08 04:47:41.550 DOMESTIC DISTURBANCE
20-0400817 52 KENSINGTON DR 2020-04-08 04:46:45.803 OPEN DOOR/WINDOW/FENCE
20-0400816 1940 AMELIA DR 2020-04-08 04:20:30.783 DOMESTIC DISTURBANCE
20-0400815 3430 IRBY DR 2020-04-08 03:42:21.860 PARKING VIOLATION
20-0400814 1905 HOGAN LN 2020-04-08 03:27:39.233 PARKING VIOLATION
20-0400813 1601 HOGAN LN 2020-04-08 03:18:15.113 PARKING VIOLATION
20-0400812 1601 HOGAN LN 2020-04-08 03:12:47.827 PARKING VIOLATION
20-0400811 3900 DAVE WARD DR 2020-04-08 02:35:59.947 LOST PROPERTY
20-0400810 1346 SENA DR 2020-04-08 02:35:00.207 CHECKING VEHICLE
20-0400809 20-03299 1620 MIDDLE RD 2020-04-08 01:56:20.023 DOMESTIC DISTURBANCE
20-0400807 295 S ASH ST 2020-04-08 01:12:06.230 ATTEMPT TO CONTACT
20-0400805 4710 STOCKTON RD 2020-04-08 00:59:41.160 ATTEMPT TO CONTACT
20-0400804 825 OAK ST 2020-04-08 00:54:18.537 CHECK ON THE WELFARE
20-0400803 2500 GRUMMER LN 2020-04-07 23:18:00.093 OPEN DOOR/WINDOW/FENCE
20-0400802 604 S DAVIS ST 2020-04-07 22:59:39.360 SUSPICIOUS ACTIVITY
20-0400798 4710 STOCKTON RD 2020-04-07 22:23:44.540 RECKLESS DRIVER
20-0400796 1632 DONAGHEY AV 2020-04-07 22:09:42.110 ALARM - HOLD UP or PANIC
20-0400795 500 5TH AV 2020-04-07 22:07:20.343 CHECKING VEHICLE
20-0400794 3034 DONNELL RIDGE RD 2020-04-07 21:35:44.390 DOMESTIC DISTURBANCE
20-0400790 311 OAK ST 2020-04-07 20:55:50.150 SUSPICIOUS VEHICLE
20-0400789 1325 EASTFIELD ST 2020-04-07 20:48:29.500 SHOTS FIRED
20-0400788 217 S CENTER ST 2020-04-07 20:45:04.550 PROWLER
20-0400787 300 S DONAGHEY AV 2020-04-07 20:27:07.030 DISCHARGING FIREWORKS
20-0400786 2110 SALEM RD 2020-04-07 20:25:47.047 ALARM
20-0400785 1909 BRUCE ST 2020-04-07 20:25:23.743 SHOTS FIRED
20-0400784 1620 MIDDLE RD 2020-04-07 20:05:57.560 ATTEMPT TO CONTACT
20-0400783 1705 S SALEM RD 2020-04-07 19:41:27.710 CIVIL MATTER
20-0400782 860 ELSINGER BLVD 2020-04-07 19:38:03.837 CHECKING VEHICLE
20-0400781 3640 JEANNA DR 2020-04-07 19:29:00.567 CIVIL MATTER
20-0400780 1101 MUSEUM RD 2020-04-07 19:20:38.407 911 HANGUP CALL
20-0400779 2002 PRINCE ST 2020-04-07 19:16:59.647 SUSPICIOUS PERSON
20-0400778 101 OAK ST 2020-04-07 19:10:32.027 THEFT OF PROPERTY
20-0400776 41 SOUTHERLAND RD 2020-04-07 19:00:02.623 DOMESTIC DISTURBANCE
20-0400773 163 FARRIS RD 2020-04-07 18:12:59.243 ATTEMPT TO CONTACT
20-0400772 3501 COLLEGE AV 2020-04-07 17:51:12.817 BATTERY REPORT
20-0400771 1267 FLEMING ST 2020-04-07 17:31:51.837 SUSPICIOUS PERSON
20-0400769 20-03298 530 S DONAGHEY AV 2020-04-07 17:27:24.623 ACCIDENT - PRIVATE PROPERTY
20-0400768 1105 DEER ST 2020-04-07 17:19:40.990 ALARM
20-0400767 20-03297 1825 E OAK ST 2020-04-07 17:18:48.370 THEFT OF PROPERTY
20-0400766 20-03295 150 SKYLINE DR 2020-04-07 16:58:28.600 ACCIDENT - PROPERTY DAMAGE
20-0400765 20-03296 716 S MITCHELL ST 2020-04-07 16:53:59.910 TERRORISTIC THREATENING
20-0400763 475 ROBINS ST 2020-04-07 16:49:22.997 CIVIL MATTER
20-0400762 213 OAK ST 2020-04-07 16:33:43.297 ACCIDENT - PROPERTY DAMAGE
20-0400761 1825 E OAK ST 2020-04-07 16:28:06.920 THEFT OF PROPERTY
20-0400760 720 S MITCHELL ST 2020-04-07 16:12:07.457 DISTURBANCE
20-0400758 10 LOWER RIDGE RD 2020-04-07 15:59:06.867 SUPPLEMENT REPORT CALL
20-0400757 818 E OAK ST 2020-04-07 15:36:24.560 CHECK ON THE WELFARE
20-0400756 20-03293 2417 COLLEGE AV 2020-04-07 15:34:20.700 THEFT OF PROPERTY
20-0400755 2350 SANDERS ST 2020-04-07 15:20:58.623 AGENCY ASSIST
20-0400754 20-03291 1860 MILESTONE DR 2020-04-07 15:18:14.973 TERRORISTIC THREATENING
20-0400753 20-03290 600 SKYLINE DR 2020-04-07 15:13:29.110 ACCIDENT - PROPERTY DAMAGE
20-0400750 99 BRIDGESTONE DR 2020-04-07 15:04:44.143 ATTEMPT TO CONTACT
20-0400749 20-03289 1120 EAST GERMAN LN 2020-04-07 14:53:56.003 FRAUD
20-0400748 2480 TYLER ST 2020-04-07 14:48:07.920 SUSPICIOUS PERSON
20-0400747 1600 WESTLAKE DR 2020-04-07 14:22:29.153 ALARM - HOLD UP or PANIC
20-0400746 2355 NATURE TRL 2020-04-07 14:13:48.407 CIVIL STAND BY
20-0400745 1540 TRISON LN 2020-04-07 14:07:39.147 CHECK ON THE WELFARE
20-0400743 1100 MAIN ST 2020-04-07 13:59:46.983 ATTEMPT TO CONTACT
20-0400741 2840 MAKENZIE DR 2020-04-07 13:35:46.517 UNAUTHORIZED USE OF MOTOR VEHICLE
20-0400740 2051 HARKRIDER ST 2020-04-07 13:29:24.487 CHECKING VEHICLE
20-0400738 20-03288 575 CLUB LN 2020-04-07 13:07:33.390 COMPUTER CRIMES
20-0400737 409 FARRIS RD 2020-04-07 13:04:31.243 ATTEMPT TO CONTACT
20-0400736 20-03287 853 DAVIS ST 2020-04-07 12:57:02.460 BREAKING OR ENTERING
20-0400733 20-03285 1628 DUNCAN ST 2020-04-07 12:01:38.757 BREAKING OR ENTERING
20-0400732 475 ROBINS ST 2020-04-07 12:00:42.853 CIVIL MATTER
20-0400731 855 E OAK ST 2020-04-07 11:57:57.927 ATTEMPT TO CONTACT
20-0400730 2302 COLLEGE AV 2020-04-07 11:20:29.843 ATTEMPT TO CONTACT
20-0400729 204 LOCUST AV 2020-04-07 10:58:04.987 ATTEMPT TO CONTACT
20-0400725 2425 DAVE WARD DR 2020-04-07 10:24:34.160 DISTURBANCE
20-0400724 816 EAST GERMAN LN 2020-04-07 10:20:08.430 ATTEMPT TO CONTACT
20-0400721 3100 IRBY DR 2020-04-07 09:42:06.157 SUPPLEMENT REPORT CALL
20-0400719 1555 EXCHANGE AV 2020-04-07 09:24:58.887 SUPPLEMENT REPORT CALL
20-0400718 20-03283 3270 TURTLE HILL CV 2020-04-07 09:23:17.353 NO CONTACT ORDER VIOLATION
20-0400716 2040 MARY ALICE DR 2020-04-07 08:50:20.650 ABANDONED VEHICLE
20-0400714 1916 BRUCE ST 2020-04-07 08:34:20.643 ATTEMPT TO CONTACT
20-0400713 1600 E SIEBENMORGEN RD 2020-04-07 08:19:24.807 CHECK ON THE WELFARE
20-0400712 20-03284 135 LOCUST AV 2020-04-07 08:16:29.397 FOUND PROPERTY
20-0400711 1900 TYLER ST 2020-04-07 08:11:43.353 TRESPASSING
20-0400710 20-03281 2475 SANDERS ST 2020-04-07 07:42:38.597 BREAKING OR ENTERING
20-0400709 20-03280 2475 SANDERS ST 2020-04-07 07:41:35.577 BREAKING OR ENTERING
20-0400708 3900 DAVE WARD DR 2020-04-07 07:20:11.337 ATTEMPT TO CONTACT
20-0400707 20-03277 1555 EXCHANGE AV 2020-04-07 07:19:47.437 BREAKING OR ENTERING
20-0400706 20-03278 2330 SANDERS ST 2020-04-07 07:14:57.750 BREAKING OR ENTERING
20-0400705 20-03276 2330 SANDERS ST 2020-04-07 07:04:03.123 BREAKING OR ENTERING
20-0400704 20-03274 1555 EXCHANGE AV 2020-04-07 06:48:12.563 BREAKING OR ENTERING
20-0400703 20-03279 20 BRONNIE LN 2020-04-07 06:38:19.803 THEFT OF PROPERTY
20-0400702 20-03273 2260 SANDERS ST 2020-04-07 06:37:39.093 BREAKING OR ENTERING
20-0400701 300 S MITCHELL ST 2020-04-07 02:56:46.910 CHECKING VEHICLE
20-0400699 402 S ASH ST 2020-04-07 01:24:37.400 SUSPICIOUS ACTIVITY
20-0400698 300 S DONAGHEY AV 2020-04-07 01:24:06.650 CHECKING PERSON
20-0400693 2900 PRINCE ST 2020-04-07 00:21:52.493 CHECK ON THE WELFARE
20-0400692 1051 HOGAN LN 2020-04-06 23:59:44.677 CHECKING VEHICLE
20-0400691 20-03272 1105 PRAIRIE ST 2020-04-06 23:39:27.023 TERRORISTIC THREATENING
20-0400690 450 SKYLINE DR 2020-04-06 23:24:30.740 CHECKING VEHICLE
20-0400689 20-03271 1397 EAST GERMAN LN 2020-04-06 23:20:54.150 CHECK ON THE WELFARE
20-0400688 905 SKYLINE DR 2020-04-06 22:56:28.530 CHECKING VEHICLE
20-0400687 3405 BAY BERRY RD 2020-04-06 22:43:28.740 SUSPICIOUS PERSON
20-0400686 20-03270 1775 OLD MORRILTON HWY 2020-04-06 22:40:40.003 FOUND PROPERTY
20-0400685 580 E DAVE WARD DR 2020-04-06 22:36:43.890 SUPPLEMENT REPORT CALL
20-0400684 3100 IRBY DR 2020-04-06 22:24:14.097 DOMESTIC DISTURBANCE
20-0400683 420 E OAK ST 2020-04-06 22:15:14.327 CHECK ON THE WELFARE
20-0400682 401 2ND ST 2020-04-06 22:07:47.210 RECKLESS DRIVER
20-0400681 180 S ASH ST 2020-04-06 22:03:43.200 LOUD NOISE-MUSIC
20-0400680 500 FAULKNER ST 2020-04-06 21:13:24.833 CHECKING VEHICLE
20-0400679 2800 STONEBROOK CV 2020-04-06 20:53:32.987 CHECK ON THE WELFARE
20-0400678 860 ELSINGER BLVD 2020-04-06 20:32:00.380 ATTEMPT TO CONTACT
20-0400675 20-03269 3100 IRBY DR 2020-04-06 19:52:23.173 DOMESTIC DISTURBANCE
20-0400674 1931 MARTIN ST 2020-04-06 19:46:53.817 CIVIL MATTER
20-0400673 20-03268 1775 BRITTANY CIR 2020-04-06 19:18:35.933 BURGLARY
20-0400670 545 SKYLINE DR 2020-04-06 18:38:18.553 ATTEMPT TO CONTACT
20-0400669 20-03267 475 ROBINS ST 2020-04-06 18:23:38.210 THEFT OF PROPERTY
20-0400668 580 E DAVE WARD DR 2020-04-06 18:23:05.687 SUPPLEMENT REPORT CALL
20-0400667 1905 COX CV 2020-04-06 18:21:34.320 TRESPASSING
20-0400666 1105 PRAIRIE ST 2020-04-06 18:06:48.740 ATTEMPT TO CONTACT
20-0400665 1840 S SALEM RD 2020-04-06 17:45:48.437 ATTEMPT TO CONTACT
20-0400664 1405 S DONAGHEY AV 2020-04-06 17:18:22.910 BURGLARY
20-0400663 224 SCENIC HILL RD 2020-04-06 17:07:50.243 ATTEMPT TO CONTACT
20-0400662 1155 SKYLINE DR 2020-04-06 17:05:43.043 FOUND PROPERTY
20-0400661 20-03266 207 WILLOW ST 2020-04-06 17:03:44.530 DOMESTIC DISTURBANCE
20-0400660 501 HOGAN LN 2020-04-06 16:39:58.880 RECKLESS DRIVER
20-0400658 7 TUCKER CREEK RD 2020-04-06 16:28:54.457 SUSPICIOUS VEHICLE
20-0400654 475 ROBINS ST 2020-04-06 16:06:07.127 SUSPICIOUS PERSON
20-0400653 20-03265 400 DONAGHEY AV 2020-04-06 16:01:04.160 BATTERY REPORT
20-0400651 1620 MIDDLE RD 2020-04-06 15:48:06.660 AGENCY ASSIST
20-0400649 3603 IRBY DR 2020-04-06 15:40:06.430 CHECKING VEHICLE
20-0400648 20-03264 2640 PRINCE ST 2020-04-06 15:35:27.087 ACCIDENT - PROPERTY DAMAGE
20-0400645 20-03262 1000 E SIEBENMORGEN RD 2020-04-06 15:04:45.103 ABUSE
20-0400644 20-03261 1325 OLD MORRILTON HWY 2020-04-06 15:02:46.537 ACCIDENT - PRIVATE PROPERTY
20-0400643 1895 E OAK ST 2020-04-06 14:59:48.013 VEHICLE TOW
20-0400642 1316 COLLIER DR 2020-04-06 14:46:36.170 CHECK ON THE WELFARE
20-0400641 1845 OLD MORRILTON HWY 2020-04-06 14:27:01.887 FOUND PROPERTY
20-0400640 3001 LAKEVIEW ACRES RD 2020-04-06 14:24:52.310 ALARM
20-0400639 825 OAK ST 2020-04-06 14:16:43.770 CHECK ON THE WELFARE
20-0400638 20-03260 2760 STONEWOOD DR 2020-04-06 13:56:25.090 ACCIDENT - PROPERTY DAMAGE
20-0400637 20-03259 1910 DAVE WARD DR 2020-04-06 13:53:17.147 BATTERY REPORT
20-0400634 816 HOGAN LN 2020-04-06 13:34:08.500 NO CONTACT ORDER VIOLATION
20-0400633 3845 RED MAPLE DR 2020-04-06 13:32:57.210 ATTEMPT TO CONTACT
20-0400632 20-03258 1840 S SALEM RD 2020-04-06 13:18:41.913 DOMESTIC DISTURBANCE
20-0400631 705 SALEM RD 2020-04-06 13:12:35.680 TRAFFIC PROBLEM-CONTROL
20-0400629 15 MILL POND RD 2020-04-06 12:32:41.287 CIVIL MATTER
20-0400628 3845 RED MAPLE DR 2020-04-06 12:25:13.480 CIVIL MATTER
20-0400627 2420 BROADVIEW AV 2020-04-06 12:15:00.990 SUSPICIOUS PERSON
20-0400626 34 EVE LN 2020-04-06 12:09:02.197 BARKING DOG COMPLAINT
20-0400623 2699 DONAGHEY AV 2020-04-06 12:00:14.210 SUPPLEMENT REPORT CALL
20-0400622 20-03257 1175 MORNINGSIDE DR 2020-04-06 11:59:10.617 BATTERY REPORT
20-0400621 1730 MILESTONE DR 2020-04-06 11:39:30.940 TRESPASSING
20-0400620 20-03255 2223 WASHINGTON AV 2020-04-06 11:37:53.437 CRIMINAL MISCHIEF
20-0400619 1530 PYRAMID DR 2020-04-06 11:32:12.157 BURGLARY
20-0400618 20-03256 1601 HOGAN LN 2020-04-06 11:28:10.617 ACCIDENT - PRIVATE PROPERTY
20-0400617 1719 ROBINSON AV 2020-04-06 11:13:56.590 RECOVERED VEHICLE
20-0400616 2420 BROADVIEW AV 2020-04-06 11:09:39.640 SUSPICIOUS PERSON
20-0400615 1350 E W MARTIN DR 2020-04-06 10:55:55.513 ILLEGAL DUMPING
20-0400614 150 E OAK ST 2020-04-06 10:54:57.777 STALLED VEHICLE
20-0400613 605 1ST AV 2020-04-06 10:53:18.137 ATTEMPT TO CONTACT
20-0400611 402 S ASH ST 2020-04-06 10:45:16.280 CIVIL MATTER
20-0400610 1500 FLEMING ST 2020-04-06 10:32:30.720 STALLED VEHICLE
20-0400608 20-03254 3501 COLLEGE AV 2020-04-06 10:14:56.940 BATTERY REPORT
20-0400604 1302 JOYNER DR 2020-04-06 09:54:04.253 DOMESTIC DISTURBANCE
20-0400603 20-03253 1309 DONAGHEY AV 2020-04-06 09:43:44.910 FRAUD
20-0400601 1820 HOGAN LN 2020-04-06 09:20:10.427 CIVIL STAND BY
20-0400599 2740 DAVE WARD DR 2020-04-06 09:01:52.020 ATTEMPT TO CONTACT
20-0400595 20-03251 475 ROBINS ST 2020-04-06 08:22:06.783 THEFT OF PROPERTY
20-0400594 2223 WASHINGTON AV 2020-04-06 07:51:46.250 CRIMINAL MISCHIEF
20-0400593 1660 DAVE WARD DR 2020-04-06 07:44:09.387 ALARM
20-0400592 540 UNITED DR 2020-04-06 07:11:06.917 ALARM
20-0400591 450 SKYLINE DR 2020-04-06 07:03:05.190 ABANDONED VEHICLE
20-0400590 1405 JOYNER DR 2020-04-06 05:58:55.777 911 HANGUP CALL
20-0400589 20-03250 1201 OLD MORRILTON HWY 2020-04-06 05:53:34.320 ACCIDENT - HIT AND RUN
20-0400588 601 ELSINGER BLVD 2020-04-06 05:00:18.330 ALARM
20-0400586 855 S SALEM RD 2020-04-06 03:17:36.580 CHECK ON THE WELFARE
20-0400585 204 LOCUST AV 2020-04-06 03:15:00.510 DOMESTIC DISTURBANCE
20-0400583 300 S DONAGHEY AV 2020-04-06 01:44:38.650 UNKNOWN TROUBLE
20-0400582 2270 MEADOWLAKE RD 2020-04-06 01:34:40.820 CHECK ON THE WELFARE
20-0400580 1100 PRAIRIE ST 2020-04-06 01:23:20.443 CHECKING PERSON
20-0400579 4715 STOCKTON RD 2020-04-06 01:02:07.957 RECKLESS DRIVER
20-0400578 2270 NATURE TRL 2020-04-06 00:48:49.067 SHOTS FIRED
20-0400573 601 4TH AV 2020-04-06 00:32:55.310 SUSPICIOUS PERSON
20-0400572 601 ELSINGER BLVD 2020-04-06 00:23:08.647 ALARM
20-0400571 604 S DAVIS ST 2020-04-06 00:22:29.260 LOUD NOISE-MUSIC
20-0400570 1210 INGRAM ST 2020-04-06 00:11:11.257 TRAFFIC PROBLEM-CONTROL
20-0400569 1822 HOGAN LN 2020-04-05 23:43:27.897 LOUD NOISE-MUSIC
20-0400568 129 I40EB 2020-04-05 23:42:55.200 STALLED VEHICLE
20-0400566 1150 S AMITY RD 2020-04-05 23:03:52.377 ALARM
20-0400565 20-03249 1860 MILESTONE DR 2020-04-05 22:55:54.210 DOMESTIC DISTURBANCE
20-0400564 100 SOUTH GERMAN LN 2020-04-05 22:55:48.397 DOMESTIC DISTURBANCE
20-0400563 6 MEADOWBROOK DR 2020-04-05 22:49:57.787 ALARM
20-0400562 475 ROBINS ST 2020-04-05 22:43:42.093 DISTURBANCE
20-0400561 955 SOUTH GERMAN LN 2020-04-05 22:41:55.373 DOMESTIC DISTURBANCE
20-0400560 1105 PRAIRIE ST 2020-04-05 22:41:28.653 ATTEMPT TO CONTACT
20-0400559 2400 MARKET PLAZA DR 2020-04-05 22:01:18.497 LOUD NOISE-MUSIC
20-0400558 20-03248 700 HARKRIDER ST 2020-04-05 21:49:21.033 CRIMINAL MISCHIEF
20-0400557 20-03245 1805 OTT MEMORIAL BLVD 2020-04-05 21:44:39.513 DOMESTIC DISTURBANCE
20-0400555 1825 E OAK ST 2020-04-05 21:12:59.273 ATTEMPT TO CONTACT
20-0400554 20-03246 626 4TH AV 2020-04-05 21:10:44.163 DISTURBANCE
20-0400553 1201 OAK ST 2020-04-05 21:04:54.353 CHECKING PERSON
20-0400550 20-03244 2315 REMINGTON RD 2020-04-05 20:35:14.213 DOMESTIC DISTURBANCE
20-0400549 20-03243 3900 DAVE WARD DR 2020-04-05 20:23:21.457 FRAUD
20-0400548 380 HARKRIDER ST 2020-04-05 20:19:35.610 CIVIL MATTER
20-0400547 818 4TH ST 2020-04-05 19:44:54.037 DISTURBANCE
20-0400546 1675 DOE TRL 2020-04-05 19:39:35.920 LOUD NOISE-MUSIC
20-0400544 1510 CHERRY BARK DR 2020-04-05 19:01:57.413 DOMESTIC DISTURBANCE
20-0400543 345 EAST GERMAN LN 2020-04-05 19:00:14.383 FOUND PROPERTY
20-0400542 20-03242 5 SUSAN LN 2020-04-05 18:46:04.953 SUPPLEMENT REPORT CALL
20-0400541 1825 E OAK ST 2020-04-05 18:35:41.637 SUSPICIOUS PERSON
20-0400540 808 NORTH CREEK DR 2020-04-05 18:25:24.040 RECOVERED VEHICLE
20-0400539 20-03239 1624 BUCKHORN CIR 2020-04-05 18:24:41.887 CIVIL STAND BY
20-0400538 20-03241 101 EAST GERMAN LN 2020-04-05 18:21:46.363 FOUND PROPERTY
20-0400537 20-03240 1200 COVINGTON WAY 2020-04-05 18:16:19.083 DOMESTIC DISTURBANCE
20-0400534 500 ELSINGER BLVD 2020-04-05 18:00:22.763 DOMESTIC DISTURBANCE
20-0400533 2007 CREEKWOOD DR 2020-04-05 17:59:39.140 SUPPLEMENT REPORT CALL
20-0400532 1900 TYLER ST 2020-04-05 17:37:48.960 ALARM
20-0400528 800 WALNUT ST 2020-04-05 16:27:15.467 INTOXICATED DRIVER
20-0400527 20-03238 1601 HOGAN LN 2020-04-05 16:07:55.197 PROPERTY DAMAGE
20-0400526 1325 OLD MORRILTON HWY 2020-04-05 16:05:14.813 CHECK ON THE WELFARE
20-0400525 20-03237 207 WILLOW ST 2020-04-05 15:56:34.160 DISTURBANCE
20-0400523 1510 CHERRY BARK DR 2020-04-05 15:27:29.117 TRESPASSING
20-0400522 1405 S DONAGHEY AV 2020-04-05 15:03:59.303 TRESPASSING
20-0400521 1530 GRAYBEARD DR 2020-04-05 14:53:28.473 SUPPLEMENT REPORT CALL
20-0400520 127 I40EB 2020-04-05 14:51:49.210 ACCIDENT - PROPERTY DAMAGE
20-0400519 1002 E OAK ST 2020-04-05 14:29:54.637 HARASSMENT
20-0400518 20-03236 207 WILLOW ST 2020-04-05 14:29:51.290 CHECK ON THE WELFARE
20-0400516 20-03235 2900 DAVE WARD DR 2020-04-05 14:15:27.483 ACCIDENT - PROPERTY DAMAGE
20-0400515 150 E SIEBENMORGEN RD 2020-04-05 14:10:51.877 MISSING PERSON
20-0400514 20-03232 117 EVE LN 2020-04-05 14:08:34.797 INTERFERENCE WITH CUSTODY
20-0400513 2745 CARL STUART ST 2020-04-05 14:07:40.360 DISTURBANCE
20-0400510 20-03234 1155 SKYLINE DR 2020-04-05 13:59:16.017 ATTEMPT TO CONTACT
20-0400509 1105 PRAIRIE ST 2020-04-05 13:52:59.480 LOST PROPERTY
20-0400508 1260 S AMITY RD 2020-04-05 13:31:27.217 INDECENT EXPOSURE
20-0400507 701 POLK ST 2020-04-05 13:29:40.973 UNKNOWN TROUBLE
20-0400506 1005 MONTANA DR 2020-04-05 13:18:37.430 FRAUD
20-0400505 501 ELSINGER BLVD 2020-04-05 13:16:08.287 SHOPLIFTING
20-0400504 1830 PENNY ST 2020-04-05 13:12:53.667 ATTEMPT TO CONTACT
20-0400503 475 ROBINS ST 2020-04-05 13:12:25.657 LOUD NOISE-MUSIC
20-0400502 117 EVE LN 2020-04-05 13:02:05.940 INTERFERENCE WITH CUSTODY
20-0400501 20-03231 513 2ND ST 2020-04-05 12:54:49.977 INTERFERENCE WITH CUSTODY
20-0400500 20-03230 2100 MEADOWLAKE RD 2020-04-05 12:50:29.857 ACCIDENT - PERSONAL INJURY
20-0400499 1000 MORNINGSIDE DR 2020-04-05 12:48:27.207 ALARM - HOLD UP or PANIC
20-0400496 20-03282 1305 COLLIER DR 2020-04-05 12:10:09.287 UNKNOWN TROUBLE
20-0400494 324 MITCHELL ST 2020-04-05 11:49:23.640 TERRORISTIC THREATENING
20-0400493 1625 BUCKHORN CIR 2020-04-05 11:49:11.093 CIVIL STAND BY
20-0400492 3040 PRINCE ST 2020-04-05 11:35:13.833 STALLED VEHICLE
20-0400491 20-03229 100 E DAVE WARD DR 2020-04-05 11:29:42.670 ACCIDENT - PROPERTY DAMAGE
20-0400490 1304 EASTFIELD ST 2020-04-05 11:14:42.120 DOMESTIC DISTURBANCE
20-0400489 1090 SKYLINE DR 2020-04-05 10:50:33.167 ATTEMPT TO CONTACT
20-0400487 20-03228 931 FAULKNER ST 2020-04-05 10:42:46.863 UNAUTHORIZED USE OF MOTOR VEHICLE
20-0400486 1620 MIDDLE RD 2020-04-05 10:25:08.043 ATTEMPT TO CONTACT
20-0400485 207 WILLOW ST 2020-04-05 10:13:46.810 ATTEMPT TO CONTACT
20-0400484 300 E DAVE WARD DR 2020-04-05 09:49:44.430 ALARM
20-0400483 4675 OLD MORRILTON HWY 2020-04-05 09:47:43.643 BURGLARY
20-0400480 1155 SKYLINE DR 2020-04-05 07:19:18.823 ALARM
20-0400479 904 FRONT ST 2020-04-05 07:01:53.710 ALARM
20-0400478 2807 WESTPORT CIR 2020-04-05 05:51:56.800 ALARM
20-0400476 3 HONEYSUCKLE LN 2020-04-05 04:20:56.663 SHOTS FIRED
20-0400475 2899 MEADOWLAKE RD 2020-04-05 03:57:09.543 CHECKING PERSON
20-0400474 2024 ROBINSON AV 2020-04-05 03:56:42.090 CHECK ON THE WELFARE
20-0400473 1405 S DONAGHEY AV 2020-04-05 03:47:54.160 DOMESTIC DISTURBANCE
20-0400472 1725 DUKE ST 2020-04-05 03:47:52.410 BARKING DOG COMPLAINT
20-0400471 509 POLK ST 2020-04-05 03:31:07.553 CHECK ON THE WELFARE
20-0400470 512 2ND ST 2020-04-05 03:19:36.840 ATTEMPT TO CONTACT
20-0400469 1620 MIDDLE RD 2020-04-05 02:50:46.243 CHECKING VEHICLE
20-0400468 512 2ND ST 2020-04-05 02:32:17.220 DISTURBANCE
20-0400467 1512 CALDWELL ST 2020-04-05 02:27:22.130 DOMESTIC DISTURBANCE
20-0400465 835 S DONAGHEY AV 2020-04-05 01:35:38.510 CHECK ON THE WELFARE
20-0400464 600 FIELDSTONE LN 2020-04-05 01:19:00.287 CHECKING PERSON
20-0400463 1001 MCNUTT RD 2020-04-05 00:58:43.480 LOUD NOISE-MUSIC
20-0400462 1001 MCNUTT RD 2020-04-05 00:34:50.683 LOUD NOISE-MUSIC
20-0400459 1617 ROBINSON AV 2020-04-04 23:57:50.257 LOUD NOISE-MUSIC
20-0400458 416 S ASH ST 2020-04-04 23:41:36.600 LOUD NOISE-MUSIC
20-0400457 20-03226 3260 LIZZY LN 2020-04-04 23:39:09.607 DOMESTIC DISTURBANCE
20-0400456 101 OAK ST 2020-04-04 23:38:40.520 AUDIBLE ALARM
20-0400454 475 ROBINS ST 2020-04-04 23:31:45.390 THEFT OF PROPERTY
20-0400453 1925 PENNY ST 2020-04-04 23:21:25.260 LOUD NOISE-MUSIC
20-0400452 1800 S SALEM RD 2020-04-04 22:59:15.673 SUSPICIOUS PERSON
20-0400451 315 HUBBARD RD 2020-04-04 22:49:23.353 LOUD NOISE-MUSIC
20-0400450 20-03225 605 1ST AV 2020-04-04 22:42:40.193 DOMESTIC DISTURBANCE
20-0400449 4710 STOCKTON RD 2020-04-04 22:30:40.883 RECKLESS DRIVER
20-0400446 2510 COLLINS DR 2020-04-04 21:31:48.923 DOMESTIC DISTURBANCE
20-0400445 475 ROBINS ST 2020-04-04 21:17:50.683 LOUD NOISE-MUSIC
20-0400443 1405 S DONAGHEY AV 2020-04-04 21:10:50.957 AGENCY ASSIST
20-0400442 20-03224 1030 SKYLINE DR 2020-04-04 21:02:12.670 PROPERTY DAMAGE
20-0400440 2007 CREEKWOOD DR 2020-04-04 20:52:36.287 ATTEMPT TO CONTACT
20-0400439 2741 PULASKI DR 2020-04-04 20:47:43.300 SUSPICIOUS VEHICLE
20-0400438 2210 LINDA DR 2020-04-04 20:31:46.103 PROWLER
20-0400436 825 WALNUT ST 2020-04-04 20:02:10.227 BREAKING OR ENTERING
20-0400434 518 2ND AV 2020-04-04 19:56:30.887 ATTEMPT TO CONTACT
20-0400431 1620 MIDDLE RD 2020-04-04 19:44:25.407 LOUD NOISE-MUSIC
20-0400430 20-03227 715 INGRAM ST 2020-04-04 19:41:50.973 HARASSING COMMUNICATIONS
20-0400426 1615 MOCKINGBIRD LN 2020-04-04 19:28:28.763 ATTEMPT TO CONTACT
20-0400425 2000 KEATHLEY DR 2020-04-04 19:17:17.307 SUSPICIOUS PERSON
20-0400424 1809 BILL LUCY DR 2020-04-04 19:10:32.560 DOMESTIC DISTURBANCE
20-0400422 5210 GALLERIA CV 2020-04-04 19:06:10.243 ATTEMPT TO CONTACT
20-0400421 20-03222 335 S MITCHELL ST 2020-04-04 18:18:32.640 FIGHT
20-0400420 406 WILLOW ST 2020-04-04 17:52:32.683 CITIZEN ASSIST
20-0400419 1155 SKYLINE DR 2020-04-04 17:37:02.183 RECKLESS DRIVER
20-0400418 1570 E OAK ST 2020-04-04 17:18:00.337 UNAUTHORIZED USE OF MOTOR VEHICLE
20-0400417 1301 COUNTRY CLUB RD 2020-04-04 16:56:52.357 TRESPASSING
20-0400416 3100 PEBBLE BEACH DR 2020-04-04 16:49:44.073 TRESPASSING
20-0400414 2204 LOOKOUT AV 2020-04-04 16:40:29.200 DISTURBANCE
20-0400413 1035 SKYLINE DR 2020-04-04 16:39:45.507 CHECK ON THE WELFARE
20-0400412 20-03221 4629 OLD MORRILTON HWY 2020-04-04 16:20:13.503 ACCIDENT - PERSONAL INJURY
20-0400411 407 HEREFORD ST 2020-04-04 15:26:40.303 FRAUD
20-0400409 1553 WASHINGTON AV 2020-04-04 14:47:29.660 CRIMINAL MISCHIEF
20-0400408 124 I40EB 2020-04-04 14:47:20.940 STALLED VEHICLE
20-0400407 2695 DAVE WARD DR 2020-04-04 14:37:31.807 NO CONTACT ORDER VIOLATION
20-0400406 2695 DAVE WARD DR 2020-04-04 14:33:59.080 HARASSING COMMUNICATIONS
20-0400405 715 INGRAM ST 2020-04-04 14:33:02.350 HARASSING COMMUNICATIONS
20-0400404 3333 DAVE WARD DR 2020-04-04 14:31:54.963 ILLEGAL DUMPING
20-0400403 4930 COLLEGE AV 2020-04-04 14:22:53.580 SUPPLEMENT REPORT CALL
20-0400401 2695 DAVE WARD DR 2020-04-04 14:19:30.793 SUPPLEMENT REPORT CALL
20-0400400 20-03220 1675 BRILEY DR 2020-04-04 13:56:01.877 CHECK ON THE WELFARE
20-0400399 20-03219 1755 CENTENNIAL CLUB DR 2020-04-04 13:50:10.677 THEFT OF PROPERTY
20-0400398 401 OAK ST 2020-04-04 13:38:07.210 CIVIL MATTER
20-0400397 815 E OAK ST 2020-04-04 13:29:36.543 SUPPLEMENT REPORT CALL
20-0400396 1105 SKYLINE DR 2020-04-04 13:04:24.260 SUSPICIOUS ACTIVITY
20-0400394 20-03218 815 E OAK ST 2020-04-04 12:42:21.917 THEFT OF PROPERTY
20-0400393 607 OAK ST 2020-04-04 12:33:25.237 RECKLESS DRIVER
20-0400392 20-03217 1155 SKYLINE DR 2020-04-04 12:18:36.873 SHOPLIFTING
20-0400391 1425 DAVIS ST 2020-04-04 12:01:33.047 SUSPICIOUS PERSON
20-0400389 504 E OAK ST 2020-04-04 10:59:23.173 ATTEMPT TO CONTACT
20-0400388 860 CRESTLINER DR 2020-04-04 10:43:57.450 CIVIL STAND BY
20-0400387 20-03216 170 S ASH ST 2020-04-04 10:14:55.913 HARASSMENT
20-0400386 889 HEATHER CIR 2020-04-04 09:24:09.760 ALARM
20-0400385 300 S DONAGHEY AV 2020-04-04 09:06:53.713 DOMESTIC DISTURBANCE
20-0400382 20-03215 108 LOWER RIDGE RD 2020-04-04 08:46:19.113 LOST-STOLEN LICENSE PLATE
20-0400377 1115 E OAK ST 2020-04-04 04:03:46.867 ALARM
20-0400376 602 4TH AV 2020-04-04 03:20:28.767 SUSPICIOUS PERSON
20-0400375 500 OAK ST 2020-04-04 03:18:44.797 FOUND PROPERTY
20-0400374 134 HARKRIDER ST 2020-04-04 03:12:13.193 DISTURBANCE
20-0400373 815 E OAK ST 2020-04-04 03:03:01.010 SUSPICIOUS VEHICLE
20-0400371 1615 TORREY PINE LN 2020-04-04 02:47:42.083 SUSPICIOUS PERSON
20-0400369 2715 PRINCE ST 2020-04-04 02:28:48.023 DISTURBANCE
20-0400368 260 SALEM RD 2020-04-04 00:53:21.493 CHECKING VEHICLE
20-0400366 2007 CREEKWOOD DR 2020-04-04 00:46:51.007 SUPPLEMENT REPORT CALL
20-0400365 955 E OAK ST 2020-04-04 00:43:10.787 ALARM
20-0400364 1985 RICH SMITH LN 2020-04-04 00:26:02.960 LOUD NOISE-MUSIC
20-0400363 2080 BROADVIEW AV 2020-04-04 00:16:46.363 PROWLER
20-0400362 1100 E OAK ST 2020-04-04 00:09:00.240 CHECKING VEHICLE
20-0400361 1802 ROBINS ST 2020-04-03 23:53:21.010 SUSPICIOUS PERSON
20-0400360 570 CHERUB DR 2020-04-03 23:46:11.160 DOMESTIC DISTURBANCE
20-0400358 2200 WASHINGTON AV 2020-04-03 23:36:54.807 SUSPICIOUS PERSON
20-0400357 1955 KEATHLEY DR 2020-04-03 23:30:42.430 LOUD NOISE-MUSIC
20-0400356 1815 PRINCE ST 2020-04-03 23:28:21.907 SUSPICIOUS ACTIVITY
20-0400355 780 MILAM DR 2020-04-03 23:24:54.260 SUSPICIOUS ACTIVITY
20-0400354 20-03214 2323 WASHINGTON AV 2020-04-03 22:42:33.677 SUSPICIOUS PERSON
20-0400353 2415 JESSICA DR 2020-04-03 22:37:30.683 LOUD NOISE-MUSIC
20-0400352 600 CHERUB DR 2020-04-03 22:28:43.883 RECKLESS DRIVER
20-0400351 20-03213 633 S COUNTRY CLUB RD 2020-04-03 22:20:29.020 ACCIDENT - PROPERTY DAMAGE
20-0400349 1301 PADGETT RD 2020-04-03 22:14:02.037 CHECKING VEHICLE
20-0400348 53 MEADOWBROOK DR 2020-04-03 21:57:20.050 LOUD NOISE-MUSIC
20-0400346 4 PATTON CIR 2020-04-03 21:24:18.007 BARKING DOG COMPLAINT
20-0400344 20-03212 207 WILLOW ST 2020-04-03 21:14:35.253 ABANDONED VEHICLE
20-0400343 1920 SIMMS ST 2020-04-03 21:10:35.100 HARASSMENT
20-0400342 1685 JACKSON DR 2020-04-03 21:08:53.760 CIVIL MATTER
20-0400341 20-03211 1512 CALDWELL ST 2020-04-03 20:59:53.670 UNKNOWN TROUBLE
20-0400340 603 OAK ST 2020-04-03 20:56:06.283 SUPPLEMENT REPORT CALL
20-0400339 501 ELSINGER BLVD 2020-04-03 20:47:03.490 LOITERING
20-0400338 1420 CHOATE ST 2020-04-03 20:43:44.557 CHECK ON THE WELFARE
20-0400337 20-03209 2300 PRINCE ST 2020-04-03 20:38:43.917 ACCIDENT - PRIVATE PROPERTY
20-0400336 20-03208 2007 CREEKWOOD DR 2020-04-03 20:30:16.480 RUNAWAY
20-0400335 516 3RD AV 2020-04-03 20:24:00.950 ATTEMPT TO CONTACT
20-0400334 20-03207 518 2ND AV 2020-04-03 20:02:56.607 ACCIDENT - PROPERTY DAMAGE
20-0400333 20-03205 1200 WOODSIDE DR 2020-04-03 19:58:47.507 DISTURBANCE
20-0400332 20-03206 1318 OAK ST 2020-04-03 19:57:16.590 TERRORISTIC THREATENING
20-0400330 603 OAK ST 2020-04-03 19:22:42.327 SUPPLEMENT REPORT CALL
20-0400329 1140 HARKRIDER ST 2020-04-03 18:55:27.977 STALLED VEHICLE
20-0400328 20-03203 1555 EXCHANGE AV 2020-04-03 18:54:00.150 DISTURBANCE
20-0400324 430 LOUISE LN 2020-04-03 18:43:34.870 ALARM
20-0400323 20-03204 1155 SKYLINE DR 2020-04-03 18:42:29.517 FOUND PROPERTY
20-0400322 801 HOGAN LN 2020-04-03 18:40:37.490 RECKLESS DRIVER
20-0400321 2402 PARKWOOD DR 2020-04-03 18:39:28.383 TERRORISTIC THREATENING
20-0400319 20-03202 1304 EASTFIELD ST 2020-04-03 18:25:01.527 PROPERTY DAMAGE
20-0400318 1105 PRAIRIE ST 2020-04-03 17:42:04.917 FRAUD
20-0400317 20-03201 2200 MEADOWLAKE RD 2020-04-03 17:40:38.927 DOMESTIC DISTURBANCE
20-0400316 20-03199 4930 COLLEGE AV 2020-04-03 17:00:33.623 HARASSMENT
20-0400315 1415 DAVIS ST 2020-04-03 16:56:03.380 CHECK ON THE WELFARE
20-0400314 2307 WASHINGTON AV 2020-04-03 16:55:46.827 FRAUD
20-0400313 20-03200 2695 DAVE WARD DR 2020-04-03 16:37:40.187 INTERFERENCE WITH CUSTODY
20-0400312 1435 E OAK ST 2020-04-03 16:37:13.043 CIVIL MATTER
20-0400311 2245 E OAK ST 2020-04-03 16:31:20.447 SUPPLEMENT REPORT CALL
20-0400310 20-03197 1620 MIDDLE RD 2020-04-03 16:20:14.047 CRIMINAL MISCHIEF
20-0400308 20-03198 3900 DAVE WARD DR 2020-04-03 16:14:04.540 ACCIDENT - PRIVATE PROPERTY
20-0400307 3640 DEERBROOK DR 2020-04-03 16:13:22.147 THEFT OF IDENTITY
20-0400306 540 CENTRAL LANDING BLVD 2020-04-03 16:06:46.810 STALLED VEHICLE
20-0400305 315 HUBBARD RD 2020-04-03 16:04:41.080 THEFT OF PROPERTY
20-0400302 1310 CLIFTON ST 2020-04-03 15:38:38.510 CIVIL MATTER
20-0400301 2505 PRINCE ST 2020-04-03 15:33:56.120 RECKLESS DRIVER
20-0400300 1404 HARDY ST 2020-04-03 15:30:27.213 SUPPLEMENT REPORT CALL
20-0400299 2890 DAVE WARD DR 2020-04-03 15:29:17.940 ATTEMPT TO CONTACT
20-0400297 20-03196 2695 DAVE WARD DR 2020-04-03 15:01:21.487 NO CONTACT ORDER VIOLATION
20-0400295 2013 LEE AV 2020-04-03 14:58:50.340 ATTEMPT TO CONTACT
20-0400294 3080 FRIENDSHIP RD 2020-04-03 14:52:34.800 SUPPLEMENT REPORT CALL
20-0400293 20-03195 4550 PRINCE ST 2020-04-03 14:51:56.550 ABUSE
20-0400292 416 DURHAM ST 2020-04-03 14:35:54.007 ATTEMPT TO CONTACT
20-0400291 2699 DONAGHEY AV 2020-04-03 14:14:10.037 SUPPLEMENT REPORT CALL
20-0400290 20-03194 603 OAK ST 2020-04-03 14:13:21.633 DISTURBANCE
20-0400289 2730 PRINCE ST 2020-04-03 14:06:33.800 ALARM - HOLD UP or PANIC
20-0400288 1100 E OAK ST 2020-04-03 14:00:09.743 DISTURBANCE
20-0400287 20-03192 2100 HOGAN LN 2020-04-03 13:55:36.060 ACCIDENT - PROPERTY DAMAGE
20-0400286 20-03191 5330 LOST CANYON DR 2020-04-03 13:43:10.790 THEFT OF PROPERTY
20-0400285 2020-04-03 13:18:54.320 RECOVERED VEHICLE
20-0400284 1120 EAST GERMAN LN 2020-04-03 13:11:31.853 TRESPASSING
20-0400283 1220 E OAK ST 2020-04-03 13:10:05.077 ATTEMPT TO CONTACT
20-0400282 20-03190 3080 FRIENDSHIP RD 2020-04-03 12:43:48.180 BURGLARY
20-0400281 20-03188 1490 PYRAMID DR 2020-04-03 12:37:00.900 ACCIDENT - PROPERTY DAMAGE
20-0400280 2007 CLEVELAND AV 2020-04-03 12:34:10.450 HARASSING COMMUNICATIONS
20-0400279 515 3RD AV 2020-04-03 12:07:05.547 ATTEMPT TO CONTACT
20-0400278 515 3RD AV 2020-04-03 11:40:55.603 CIVIL STAND BY
20-0400276 34 TUCKER CREEK RD 2020-04-03 11:27:10.073 WEATHER RELATED CALLS-PROBLEMS
20-0400275 127 I40EB 2020-04-03 11:16:00.100 CHECK ON THE WELFARE
20-0400274 20-03185 515 3RD AV 2020-04-03 11:11:51.193 NO CONTACT ORDER VIOLATION
20-0400273 2007 CLEVELAND AV 2020-04-03 10:59:24.037 CIVIL STAND BY
20-0400272 20-03186 711 S DAVIS ST 2020-04-03 10:57:24.023 DOMESTIC DISTURBANCE
20-0400271 810 5TH ST 2020-04-03 10:33:02.603 TRESPASSING
20-0400270 20-03184 475 ROBINS ST 2020-04-03 10:31:54.970 CRIMINAL MISCHIEF
20-0400269 818 E OAK ST 2020-04-03 09:42:43.253 ATTEMPT TO CONTACT
20-0400268 1178 MITCHELL ST 2020-04-03 09:37:32.950 BATTERY REPORT
20-0400265 625 SALEM RD 2020-04-03 09:19:07.870 DISTURBANCE
20-0400264 625 UNITED DR 2020-04-03 08:38:56.127 SUPPLEMENT REPORT CALL
20-0400261 407 OAK ST 2020-04-03 07:45:26.200 ALARM
20-0400259 20-03183 808 NORTH CREEK DR 2020-04-03 07:15:16.763 THEFT OF VEHICLE
20-0400258 20-03182 2080 BROADVIEW AV 2020-04-03 06:36:11.220 SHOOTING
20-0400255 1200 THOMAS G WILSON DR 2020-04-03 05:22:35.563 ALARM
20-0400254 2045 SPRINGWOOD DR 2020-04-03 05:18:49.960 CHECKING VEHICLE
20-0400253 705 E SIEBENMORGEN RD 2020-04-03 04:31:51.813 CHECKING VEHICLE
20-0400252 1408 HARTJE LN 2020-04-03 03:29:13.333 LOUD NOISE-MUSIC
20-0400251 855 SALEM RD 2020-04-03 02:25:23.700 CHECKING BUILDING
20-0400250 2060 JOSH DR 2020-04-03 02:16:18.820 CHECKING BUILDING
20-0400249 103 COUNTRY CLUB RD 2020-04-03 02:10:48.220 CHECKING PERSON
20-0400245 475 ROBINS ST 2020-04-03 00:08:19.167 ATTEMPT TO CONTACT
20-0400241 450 ARTIS LN 2020-04-02 22:55:37.403 STALLED VEHICLE
20-0400240 3170 PEBBLE BEACH DR 2020-04-02 22:48:06.417 CHECK ON THE WELFARE
20-0400239 1445 MADDOX DR 2020-04-02 22:46:52.753 BREAKING OR ENTERING
20-0400236 2051 HARKRIDER ST 2020-04-02 22:29:52.033 RECKLESS DRIVER
20-0400234 3170 PEBBLE BEACH DR 2020-04-02 22:12:01.070 ATTEMPT TO CONTACT
20-0400233 2050 KEATHLEY DR 2020-04-02 22:01:27.777 SUPPLEMENT REPORT CALL
20-0400232 900 SOUTH GERMAN LN 2020-04-02 21:59:51.790 TRAFFIC PROBLEM-CONTROL
20-0400231 20-03181 835 S DONAGHEY AV 2020-04-02 21:54:17.720 CRIMINAL MISCHIEF
20-0400229 1475 HOGAN LN 2020-04-02 21:47:27.223 ALARM
20-0400228 475 ROBINS ST 2020-04-02 21:46:15.017 CIVIL MATTER
20-0400227 3170 PEBBLE BEACH DR 2020-04-02 21:45:54.850 ATTEMPT TO CONTACT
20-0400226 2535 DONAGHEY AV 2020-04-02 21:43:10.863 LOUD NOISE-MUSIC
20-0400224 3150 PEBBLE BEACH DR 2020-04-02 21:32:34.573 DOMESTIC DISTURBANCE
20-0400223 20-03180 580 E DAVE WARD DR 2020-04-02 21:28:31.627 ACCIDENT - PROPERTY DAMAGE
20-0400221 1258 EAST GERMAN LN 2020-04-02 21:11:43.410 SUPPLEMENT REPORT CALL
20-0400220 20 KINLEY DR 2020-04-02 21:10:46.503 ATTEMPT TO CONTACT
20-0400219 655 ELSINGER BLVD 2020-04-02 21:08:43.730 DISTURBANCE
20-0400218 3170 PEBBLE BEACH DR 2020-04-02 20:57:51.607 CIVIL MATTER
20-0400215 1885 MILESTONE DR 2020-04-02 20:14:11.477 DOMESTIC DISTURBANCE
20-0400214 2499 MUSEUM RD 2020-04-02 20:10:49.090 RECKLESS DRIVER
20-0400212 1472 SCOTT ST 2020-04-02 20:05:09.487 SUPPLEMENT REPORT CALL
20-0400211 20-03179 1404 HARDY ST 2020-04-02 20:03:11.540 BURGLARY
20-0400210 475 ROBINS ST 2020-04-02 19:58:12.207 ATTEMPT TO CONTACT
20-0400209 20-03176 1258 EAST GERMAN LN 2020-04-02 19:43:06.043 TERRORISTIC THREATENING
20-0400208 20-03177 1905 HOGAN LN 2020-04-02 19:42:15.477 DOMESTIC DISTURBANCE
20-0400207 1209 E OAK ST 2020-04-02 18:50:16.860 RECKLESS DRIVER
20-0400206 622 4TH AV 2020-04-02 18:48:25.177 LOUD NOISE-MUSIC
20-0400205 1220 E OAK ST 2020-04-02 18:08:28.943 ATTEMPT TO CONTACT
20-0400204 201 SKYLINE DR 2020-04-02 17:56:32.717 TRAFFIC PROBLEM-CONTROL
20-0400202 1620 MIDDLE RD 2020-04-02 17:38:34.937 SUSPICIOUS VEHICLE
20-0400201 808 FRONT ST 2020-04-02 17:37:57.150 ALARM
20-0400200 1200 DAVE WARD DR 2020-04-02 17:36:01.687 RECKLESS DRIVER
20-0400199 3305 PEBBLE BEACH DR 2020-04-02 17:31:19.643 ALARM
20-0400198 20-03174 2511 COLLEGE AV 2020-04-02 17:30:32.470 LOST CHILD-FOUND CHILD
20-0400197 20-03172 2201 WASHINGTON AV 2020-04-02 17:24:12.120 ACCIDENT - PERSONAL INJURY
20-0400196 20-03171 1155 SKYLINE DR 2020-04-02 17:20:31.387 HARASSMENT
20-0400195 20-03173 1472 SCOTT ST 2020-04-02 17:16:34.483 THEFT OF VEHICLE
20-0400193 1105 SKYLINE DR 2020-04-02 16:42:18.497 DISTURBANCE
20-0400192 101 OAK ST 2020-04-02 16:23:47.850 FRAUD
20-0400191 475 ROBINS ST 2020-04-02 16:20:10.647 INTOXICATED PERSON
20-0400190 20-03170 150 S HOGAN LN 2020-04-02 16:03:56.570 K9 SEARCH-REPORT
20-0400189 3501 COLLEGE AV 2020-04-02 16:00:36.987 CITIZEN ASSIST
20-0400188 515 2ND ST 2020-04-02 15:49:58.357 AGENCY ASSIST
20-0400187 1 NORTHWOOD DR 2020-04-02 15:47:49.097 CITY ORDINANCE VIOLATION
20-0400185 151 SKYLINE DR 2020-04-02 15:45:41.113 ENDANGERING WELFARE OF MINOR
20-0400184 625 UNITED DR 2020-04-02 15:43:55.443 SUPPLEMENT REPORT CALL
20-0400183 1620 MIDDLE RD 2020-04-02 15:30:36.807 DISTURBANCE
20-0400181 339 HARKRIDER ST 2020-04-02 15:16:16.517 ATTEMPT TO CONTACT
20-0400180 501 HOGAN LN 2020-04-02 15:16:03.920 AGENCY ASSIST
20-0400179 3700 DAVE WARD DR 2020-04-02 15:04:39.350 STALLED VEHICLE
20-0400178 2315 NATURE TRL 2020-04-02 14:50:52.550 CHECK ON THE WELFARE
20-0400177 20-03169 260 SALEM RD 2020-04-02 14:50:46.583 ACCIDENT - PROPERTY DAMAGE
20-0400176 20-03168 475 ROBINS ST 2020-04-02 14:37:35.427 NO CONTACT ORDER VIOLATION
20-0400174 500 CENTER ST 2020-04-02 14:25:28.890 CHECKING VEHICLE
20-0400173 20-03167 525 S CENTER ST 2020-04-02 14:18:32.360 PROPERTY DAMAGE
20-0400171 2535 DONAGHEY AV 2020-04-02 13:44:26.927 SUPPLEMENT REPORT CALL
20-0400170 650 LOCUST AV 2020-04-02 13:42:10.667 ATTEMPT TO CONTACT
20-0400168 1201 EXCHANGE AV 2020-04-02 13:03:15.013 SUPPLEMENT REPORT CALL
20-0400167 1505 OLD MORRILTON HWY 2020-04-02 13:01:12.943 SUPPLEMENT REPORT CALL
20-0400166 18 WOODLAWN DR 2020-04-02 12:50:15.600 CIVIL STAND BY
20-0400165 475 ROBINS ST 2020-04-02 12:45:09.400 ATTEMPT TO CONTACT
20-0400163 20-03175 3501 COLLEGE AV 2020-04-02 12:33:30.897 AGENCY ASSIST
20-0400162 1808 INDEPENDENCE AV 2020-04-02 12:27:23.113 SUSPICIOUS PERSON
20-0400161 20-03166 475 ROBINS ST 2020-04-02 12:11:38.753 HARASSMENT
20-0400160 2402 PARKVIEW CIR 2020-04-02 12:08:55.147 ATTEMPT TO CONTACT
20-0400159 807 COURT ST 2020-04-02 11:31:44.543 THEFT OF PROPERTY
20-0400155 20-03165 1155 SKYLINE DR 2020-04-02 10:45:28.713 SHOPLIFTING
20-0400154 1801 HILLMAN ST 2020-04-02 10:41:36.770 FOUND PROPERTY
20-0400153 20-03164 1105 PRAIRIE ST 2020-04-02 10:38:45.253 NO CONTACT ORDER VIOLATION
20-0400150 20-03163 3100 IRBY DR 2020-04-02 10:24:44.633 CRIMINAL MISCHIEF
20-0400148 1840 STEEPLE LN 2020-04-02 10:06:30.097 ALARM - HOLD UP or PANIC
20-0400143 20-03162 2270 MEADOWLAKE RD 2020-04-02 08:52:41.483 BREAKING OR ENTERING
20-0400142 2330 SANDERS ST 2020-04-02 08:50:04.843 SUPPLEMENT REPORT CALL
20-0400141 650 LOCUST AV 2020-04-02 08:34:29.820 SUPPLEMENT REPORT CALL
20-0400137 20-03161 650 LOCUST AV 2020-04-02 08:04:41.247 FOUND PROPERTY
20-0400136 707 ROBINS ST 2020-04-02 07:38:07.327 ALARM
20-0400135 504 3RD AV 2020-04-02 07:02:33.897 DOMESTIC DISTURBANCE
20-0400134 1200 COVINGTON WAY 2020-04-02 04:02:59.617 OPEN DOOR/WINDOW/FENCE
20-0400132 1640 S SALEM RD 2020-04-02 03:38:43.983 CHECKING VEHICLE
20-0400131 1631 S SALEM RD 2020-04-02 02:42:40.530 CHECKING VEHICLE
20-0400130 867 FENDLEY DR 2020-04-02 02:42:20.967 HARASSING COMMUNICATIONS
20-0400129 1510 HATHAWAY DR 2020-04-02 02:26:01.873 SUSPICIOUS ACTIVITY
20-0400128 1820 S SALEM RD 2020-04-02 02:11:43.647 LOUD NOISE-MUSIC
20-0400127 2110 SALEM RD 2020-04-02 01:43:31.147 ALARM
20-0400126 200 S MITCHELL ST 2020-04-02 01:41:05.547 CHECKING PERSON
20-0400124 260 SALEM RD 2020-04-02 01:08:35.663 CHECKING VEHICLE
20-0400123 2850 PRINCE ST 2020-04-02 01:03:55.100 CHECKING PERSON
20-0400122 150 SKYLINE DR 2020-04-02 00:56:18.200 ATTEMPT TO CONTACT
20-0400121 2405 WASHINGTON AV 2020-04-02 00:41:47.790 TERRORISTIC THREATENING
20-0400120 615 1ST ST 2020-04-02 00:41:46.447 LOUD NOISE-MUSIC
20-0400118 18 WOODLAWN DR 2020-04-02 00:04:52.547 911 HANGUP CALL
20-0400117 20-03160 1600 WESTLAKE DR 2020-04-02 00:04:27.410 LOUD NOISE-MUSIC
20-0400116 1250 S AMITY RD 2020-04-01 23:47:54.130 LOG VEHICLE
20-0400115 1955 KEATHLEY DR 2020-04-01 23:28:41.257 LOUD NOISE-MUSIC
20-0400114 1085 S DONAGHEY AV 2020-04-01 23:27:14.280 SUSPICIOUS VEHICLE
20-0400113 20-03158 1720 OLD MORRILTON HWY 2020-04-01 23:18:19.233 TERRORISTIC THREATENING
20-0400112 1824 HOGAN LN 2020-04-01 23:09:40.493 LOUD NOISE-MUSIC
20-0400111 20-03159 2405 WASHINGTON AV 2020-04-01 23:07:35.983 TERRORISTIC THREATENING
20-0400110 1 CADRON SETTLEMENT PARK RD 2020-04-01 22:39:36.323 CHECKING BUILDING
20-0400109 1616 WESTLAKE DR 2020-04-01 22:08:36.747 UNKNOWN TROUBLE
20-0400108 5410 LOST CANYON DR 2020-04-01 21:45:18.760 SHOTS FIRED
20-0400105 2051 HARKRIDER ST 2020-04-01 21:25:33.217 ATTEMPT TO CONTACT
20-0400104 201 DONAGHEY AV 2020-04-01 21:05:19.847 AGENCY ASSIST
20-0400102 1620 MIDDLE RD 2020-04-01 20:47:36.480 DOMESTIC DISTURBANCE
20-0400101 3900 KENNEDY LN 2020-04-01 20:36:38.913 ANIMAL BITE
20-0400100 1555 EXCHANGE AV 2020-04-01 20:27:01.370 DISTURBANCE
20-0400099 2540 HOLLY CV 2020-04-01 20:12:57.107 LOUD NOISE-MUSIC
20-0400098 20-03157 2405 WASHINGTON AV 2020-04-01 19:54:11.770 DOMESTIC DISTURBANCE
20-0400095 2420 BROADVIEW AV 2020-04-01 19:20:23.077 ATTEMPT TO CONTACT
20-0400094 119 OAK ST 2020-04-01 19:14:41.747 CIVIL MATTER
20-0400093 2200 WASHINGTON AV 2020-04-01 19:08:18.560 LOUD NOISE-MUSIC
20-0400092 2160 LANDOVER TRL 2020-04-01 18:41:49.557 BREAKING OR ENTERING
20-0400091 1505 STURGIS RD 2020-04-01 18:14:27.950 SUSPICIOUS VEHICLE
20-0400090 2007 CLEVELAND AV 2020-04-01 18:08:40.067 TERRORISTIC THREATENING
20-0400089 20-03155 20 KINLEY DR 2020-04-01 17:54:49.160 ACCIDENT - PRIVATE PROPERTY
20-0400088 1030 SKYLINE DR 2020-04-01 17:53:04.043 SUSPICIOUS PERSON
20-0400087 1830 PENNY ST 2020-04-01 17:47:53.200 DOMESTIC DISTURBANCE
20-0400086 2400 MARKET PLAZA DR 2020-04-01 17:34:12.357 ATTEMPT TO CONTACT
20-0400085 1601 DONAGHEY AV 2020-04-01 17:33:44.343 TRAFFIC LIGHT PROBLEM
20-0400082 1250 S AMITY RD 2020-04-01 17:09:47.500 ALARM
20-0400081 1325 OLD MORRILTON HWY 2020-04-01 17:07:39.213 DOMESTIC DISTURBANCE
20-0400079 20-03154 401 2ND ST 2020-04-01 16:52:55.193 DOMESTIC DISTURBANCE
20-0400078 401 2ND ST 2020-04-01 16:52:46.300 BATTERY REPORT
20-0400077 20-03152 2850 PRINCE ST 2020-04-01 16:27:11.667 ACCIDENT - PRIVATE PROPERTY
20-0400074 2020-04-01 16:00:33.790 ATTEMPT TO CONTACT
20-0400073 955 SOUTH GERMAN LN 2020-04-01 15:58:40.187 SUSPICIOUS PERSON
20-0400069 1601 HOGAN LN 2020-04-01 15:41:23.660 CRIMINAL MISCHIEF
20-0400068 5310 PLANTATION CV 2020-04-01 15:20:42.660 DOMESTIC DISTURBANCE
20-0400065 20-03151 1201 EXCHANGE AV 2020-04-01 14:50:15.043 HARASSING COMMUNICATIONS
20-0400062 140 EVE LN 2020-04-01 14:37:00.247 HARASSING COMMUNICATIONS
20-0400061 515 2ND ST 2020-04-01 14:26:28.480 AGENCY ASSIST
20-0400060 2302 COLLEGE AV 2020-04-01 14:23:46.603 ATTEMPT TO CONTACT
20-0400059 2305 LANDOVER TRL 2020-04-01 14:03:29.110 BREAKING OR ENTERING
20-0400057 20-03150 2310 LANDOVER TRL 2020-04-01 13:58:55.730 BREAKING OR ENTERING
20-0400056 6 CHARING CROSS RD 2020-04-01 13:55:10.507 LOUD NOISE-MUSIC
20-0400054 1500 HARKRIDER ST 2020-04-01 13:42:22.107 RECKLESS DRIVER
20-0400053 475 ROBINS ST 2020-04-01 13:37:15.720 MISSING PERSON
20-0400052 20-03149 1155 SKYLINE DR 2020-04-01 13:25:51.100 SHOPLIFTING
20-0400049 1220 E OAK ST 2020-04-01 12:59:04.073 SUPPLEMENT REPORT CALL
20-0400046 508 OAK ST 2020-04-01 12:25:31.420 FORGERY
20-0400044 701 ROBINS ST 2020-04-01 12:04:28.907 STALLED VEHICLE
20-0400042 2010 RICH SMITH LN 2020-04-01 11:41:15.287 CIVIL STAND BY
20-0400041 20-03147 1835 TYLER ST 2020-04-01 11:39:53.863 FOUND PROPERTY
20-0400040 20-03146 150 E SIEBENMORGEN RD 2020-04-01 11:34:20.180 ABUSE
20-0400039 20-03145 1803 MEADOWLAKE RD 2020-04-01 11:19:14.613 BREAKING OR ENTERING
20-0400037 1040 S AMITY RD 2020-04-01 11:00:13.757 ALARM
20-0400036 16 FOX RUN LANE 2020-04-01 10:58:46.140 ATTEMPT TO CONTACT
20-0400035 1220 E OAK ST 2020-04-01 10:54:54.340 SUPPLEMENT REPORT CALL
20-0400031 150 S HOGAN LN 2020-04-01 10:37:32.403 ALARM
20-0400030 825 OAK ST 2020-04-01 10:28:33.407 SUPPLEMENT REPORT CALL
20-0400027 1601 TYLER ST 2020-04-01 09:56:28.333 RECKLESS DRIVER
20-0400025 20-03144 1820 HOGAN LN 2020-04-01 09:48:41.970 CIVIL MATTER
20-0400023 2222 LEE AV 2020-04-01 09:27:50.047 CIVIL MATTER
20-0400022 801 HOGAN LN 2020-04-01 09:22:03.437 CHECK ON THE WELFARE
20-0400021 2099 FOSTER DR 2020-04-01 09:09:32.493 CIVIL MATTER
20-0400020 475 ROBINS ST 2020-04-01 09:06:00.213 VEHICLE TOW
20-0400016 1655 DAVE WARD DR 2020-04-01 08:48:35.590 ATTEMPT TO CONTACT
20-0400015 20-03143 1835 OTT MEMORIAL BLVD 2020-04-01 08:37:25.960 ATTEMPT TO CONTACT
20-0400014 20-03142 170 COMMERCE RD 2020-04-01 08:34:41.113 TERRORISTIC THREATENING
20-0400012 1839 TYLER ST 2020-04-01 08:24:04.287 ATTEMPT TO CONTACT
20-0400011 20-03141 2850 COLLEGE AV 2020-04-01 08:10:13.263 THEFT OF IDENTITY
20-0400009 4415 EMERALD GARDEN RD 2020-04-01 06:41:19.023 ALARM
20-0400008 11 BRADLEY CIR 2020-04-01 04:56:32.370 SHOTS FIRED
20-0400007 20-03139 2460 LANDOVER TRL 2020-04-01 03:55:43.510 BREAKING OR ENTERING
20-0400005 1105 SKYLINE DR 2020-04-01 02:47:37.060 DOMESTIC DISTURBANCE
20-0400004 1111 GUM ST 2020-04-01 01:49:51.247 LOUD NOISE-MUSIC
20-0400003 2730 DAVE WARD DR 2020-04-01 01:13:00.887 LOITERING
20-0400001 225 DAVIS ST 2020-04-01 00:58:06.003 ATTEMPT TO CONTACT
20-0304337 1895 E OAK ST 2020-03-31 23:56:08.797 TRESPASSING
20-0304336 20-03138 801 SOUTH GERMAN LN 2020-03-31 23:51:43.743 DOMESTIC DISTURBANCE
20-0304334 2300 PRINCE ST 2020-03-31 23:18:02.103 CHECKING VEHICLE
20-0304333 3905 PRINCE ST 2020-03-31 23:04:10.207 CHECKING VEHICLE
20-0304332 20-03137 1220 E OAK ST 2020-03-31 22:45:07.777 ACCIDENT - PERSONAL INJURY
20-0304331 475 ROBINS ST 2020-03-31 22:31:02.787 INDECENT EXPOSURE
20-0304330 5 CAMILLA LN 2020-03-31 22:23:18.663 DOMESTIC DISTURBANCE
20-0304328 815 E OAK ST 2020-03-31 21:46:25.663 LOITERING
20-0304327 1 CADRON SETTLEMENT PARK RD 2020-03-31 21:45:01.307 CHECKING VEHICLE
20-0304326 1 CADRON SETTLEMENT PARK RD 2020-03-31 21:42:01.237 CHECKING VEHICLE
20-0304324 900 SOUTH GERMAN LN 2020-03-31 21:04:26.117 STALLED VEHICLE
20-0304323 400 S AMITY RD 2020-03-31 20:59:02.667 CHECKING VEHICLE
20-0304322 400 S AMITY RD 2020-03-31 20:57:49.827 CHECKING PERSON
20-0304321 207 WILLOW ST 2020-03-31 20:50:27.450 SUPPLEMENT REPORT CALL
20-0304320 20-03135 1700 DAVE WARD DR 2020-03-31 20:48:34.740 ACCIDENT - PRIVATE PROPERTY
20-0304319 99 TUCKER CREEK RD 2020-03-31 20:39:53.273 SUSPICIOUS VEHICLE
20-0304318 5325 TRINITY CROSSING DR 2020-03-31 20:38:56.777 TERRORISTIC THREATENING
20-0304317 20-03134 1155 SKYLINE DR 2020-03-31 20:25:29.513 ACCIDENT - PRIVATE PROPERTY
20-0304314 2500 OLD MORRILTON HWY 2020-03-31 19:46:40.987 RECKLESS DRIVER
20-0304312 300 S DONAGHEY AV 2020-03-31 19:37:44.650 ATTEMPT TO CONTACT
20-0304311 20-03133 1155 SKYLINE DR 2020-03-31 19:32:46.933 SHOPLIFTING
20-0304310 1 MORNINGSIDE DR 2020-03-31 19:24:01.737 CHECK ON THE WELFARE
20-0304309 20-03132 34 BRIERWOOD CIR 2020-03-31 19:21:57.340 FRAUD
20-0304307 20-03130 2111 HAIRSTON AV 2020-03-31 18:55:31.873 DOMESTIC DISTURBANCE
20-0304306 20-03131 207 WILLOW ST 2020-03-31 18:49:28.040 DOMESTIC DISTURBANCE
20-0304305 900 GRANITE LN 2020-03-31 18:46:43.633 CIVIL STAND BY
20-0304304 335 S MITCHELL ST 2020-03-31 18:31:17.950 DISCHARGING FIREWORKS
20-0304303 402 E 6TH ST 2020-03-31 17:37:01.163 STALLED VEHICLE
20-0304302 20-03129 855 SALEM RD 2020-03-31 17:09:00.507 SHOPLIFTING
20-0304301 615 DONAGHEY AV 2020-03-31 16:58:14.283 ATTEMPT TO CONTACT
20-0304297 20-03128 260 SALEM RD 2020-03-31 16:13:03.937 BREAKING OR ENTERING
20-0304296 475 ROBINS ST 2020-03-31 15:48:40.607 CHECK ON THE WELFARE
20-0304295 20-03127 101 OAK ST 2020-03-31 15:48:40.497 FRAUD
20-0304294 10 BRADLEY CIR 2020-03-31 15:31:14.807 SUSPICIOUS PERSON
20-0304293 20-03126 2500 OLD MORRILTON HWY 2020-03-31 15:23:44.953 ACCIDENT - PROPERTY DAMAGE
20-0304292 1001 MCNUTT RD 2020-03-31 15:17:37.090 TRESPASSING
20-0304291 2255 STURGIS RD 2020-03-31 15:11:21.357 THEFT OF PROPERTY
20-0304290 3505 IRBY DR 2020-03-31 15:01:50.617 TRAFFIC PROBLEM-CONTROL
20-0304289 1702 HARKRIDER ST 2020-03-31 14:48:08.677 SUPPLEMENT REPORT CALL
20-0304288 1620 MIDDLE RD 2020-03-31 14:43:25.377 SUSPICIOUS VEHICLE
20-0304285 20-03125 620 FAIRVIEW ST 2020-03-31 14:11:41.480 HARASSING COMMUNICATIONS
20-0304284 20-03122 3327 COLLEGE AV 2020-03-31 14:10:39.973 ACCIDENT - PERSONAL INJURY
20-0304283 20-03124 661 DAVE WARD DR 2020-03-31 14:05:28.360 ACCIDENT - PROPERTY DAMAGE
20-0304282 20-03123 625 UNITED DR 2020-03-31 14:04:15.720 DOMESTIC DISTURBANCE
20-0304281 3327 COLLEGE AV 2020-03-31 13:59:28.463 ACCIDENT - PERSONAL INJURY
20-0304277 2405 SAPPHIRE DR 2020-03-31 13:02:32.200 SUSPICIOUS PERSON
20-0304275 4425 UTAH TRL 2020-03-31 12:37:40.783 PROPERTY DAMAGE
20-0304272 20-03121 3590 CUTTER RIDGE RD 2020-03-31 12:03:12.390 FRAUD
20-0304271 20-03120 1175 MORNINGSIDE DR 2020-03-31 11:55:51.837 BATTERY REPORT
20-0304268 18 HALLOUS ST 2020-03-31 11:08:10.070 CHECK ON THE WELFARE
20-0304266 20-03119 1555 EXCHANGE AV 2020-03-31 10:55:33.000 DISTURBANCE
20-0304264 1265 BRUCE ST 2020-03-31 10:41:28.760 CHECKING PERSON
20-0304263 1 SMOKING OAK RD 2020-03-31 10:35:47.537 TRAFFIC PROBLEM-CONTROL
20-0304262 1025 S DONAGHEY AV 2020-03-31 10:27:54.750 PROPERTY DAMAGE
20-0304261 101 OAK ST 2020-03-31 09:59:14.190 ACCIDENT - PROPERTY DAMAGE
20-0304259 20-03118 1201 OLD MORRILTON HWY 2020-03-31 09:08:49.777 ACCIDENT - PROPERTY DAMAGE
20-0304258 1460 ANGELINE DR 2020-03-31 09:03:05.543 ATTEMPT TO CONTACT
20-0304255 1201 DONAGHEY AV 2020-03-31 08:50:59.073 ACCIDENT - PROPERTY DAMAGE
20-0304254 1700 JENNIFER CIR 2020-03-31 08:49:46.597 SUSPICIOUS VEHICLE
20-0304253 8 CHESTER CV 2020-03-31 08:36:32.573 HARASSING COMMUNICATIONS
20-0304252 20-03117 1631 DONAGHEY AV 2020-03-31 08:35:09.677 ACCIDENT - PROPERTY DAMAGE
20-0304251 2625 DONAGHEY AV 2020-03-31 08:28:32.750 ALARM
20-0304245 4010 MAYTAG DR 2020-03-31 08:14:00.030 SUPPLEMENT REPORT CALL
20-0304243 1105 SKYLINE DR 2020-03-31 08:10:34.440 CHECK ON THE WELFARE
20-0304242 2110 SALEM RD 2020-03-31 08:03:32.790 FOUND PROPERTY
20-0304238 1707 SCOTT ST 2020-03-31 05:42:17.117 TRAFFIC PROBLEM-CONTROL
20-0304237 150 E OAK ST 2020-03-31 05:12:52.897 ALARM
20-0304235 2605 WINCHESTER DR 2020-03-31 04:23:40.977 DOMESTIC DISTURBANCE
20-0304234 705 S ELIZABETH ST 2020-03-31 02:55:28.817 LOUD NOISE-MUSIC
20-0304233 1775 OLD MORRILTON HWY 2020-03-31 02:39:15.913 CHECKING VEHICLE
20-0304232 2899 TIMBERPEG CT 2020-03-31 02:09:05.700 CHECKING VEHICLE
20-0304231 705 S ELIZABETH ST 2020-03-31 01:49:23.627 LOUD NOISE-MUSIC
20-0304230 20-03114 1065 SANTA FE TRL 2020-03-31 01:46:56.100 ACCIDENT - PRIVATE PROPERTY
20-0304228 1905 OLD MORRILTON HWY 2020-03-31 00:46:34.560 CHECKING VEHICLE
20-0304227 2400 MARKET PLAZA DR 2020-03-31 00:11:39.443 DISTURBANCE
20-0304226 20-03113 2245 E OAK ST 2020-03-30 23:34:28.027 ALARM
20-0304225 517 3RD AV 2020-03-30 23:01:38.177 CHECKING VEHICLE
20-0304224 475 ROBINS ST 2020-03-30 22:51:40.117 BURGLARY
20-0304223 20-03112 375 E OAK ST 2020-03-30 22:44:05.613 FRAUD
20-0304221 1905 HUTTO ST 2020-03-30 22:08:43.660 LOUD NOISE-MUSIC
20-0304218 1535 APPALACHAIN DR 2020-03-30 20:46:10.500 TRESPASSING
20-0304217 413 MILDRED ST 2020-03-30 20:40:36.837 ALARM
20-0304216 2125 HARKRIDER ST 2020-03-30 20:09:04.520 UNKNOWN TROUBLE
20-0304215 600 5TH AV 2020-03-30 20:06:02.280 CHECKING PERSON
20-0304214 475 ROBINS ST 2020-03-30 19:57:03.487 CHECKING BUILDING
20-0304213 2200 MARY ALICE DR 2020-03-30 19:41:43.363 CHECKING VEHICLE
20-0304212 20-03111 1601 HOGAN LN 2020-03-30 19:39:05.627 CHECK ON THE WELFARE
20-0304210 1058 FRONT ST 2020-03-30 18:59:19.893 CHECK ON THE WELFARE
20-0304209 2100 MEADOWLAKE RD 2020-03-30 18:47:37.957 CHECK ON THE WELFARE
20-0304208 1725 MILESTONE DR 2020-03-30 18:17:00.013 TRESPASSING
20-0304207 20-03110 1904 HOGAN LN 2020-03-30 18:07:46.513 INTERFERENCE WITH CUSTODY
20-0304206 120 E OAK ST 2020-03-30 18:00:20.043 SUPPLEMENT REPORT CALL
20-0304205 1361 DAVIS ST 2020-03-30 17:56:48.020 CHECK ON THE WELFARE
20-0304202 2515 W MARTIN ST 2020-03-30 17:26:01.253 CIVIL MATTER
20-0304201 1900 TYLER ST 2020-03-30 17:11:20.400 TRESPASSING
20-0304200 20-03109 120 E OAK ST 2020-03-30 17:09:06.060 ACCIDENT - PROPERTY DAMAGE
20-0304199 185 S ASH ST 2020-03-30 17:02:31.510 DOMESTIC DISTURBANCE
20-0304198 20-03108 1155 SKYLINE DR 2020-03-30 16:47:35.047 SHOPLIFTING
20-0304197 20-03107 640 CHERUB DR 2020-03-30 16:44:38.753 DOMESTIC DISTURBANCE
20-0304196 821 HOGAN LN 2020-03-30 16:31:38.430 RECKLESS DRIVER
20-0304195 1900 TYLER ST 2020-03-30 16:27:31.190 TRESPASSING
20-0304193 1153 HARKRIDER ST 2020-03-30 16:23:11.570 ALARM
20-0304191 490 HOGAN LN 2020-03-30 15:53:55.443 ALARM - BANK
20-0304190 603 5TH AV 2020-03-30 15:41:05.820 ATTEMPT TO CONTACT
20-0304189 1025 S DONAGHEY AV 2020-03-30 15:10:49.377 PROPERTY DAMAGE
20-0304187 20-03105 4010 MAYTAG DR 2020-03-30 14:57:55.940 THEFT OF PROPERTY
20-0304186 1925 HENRY ST 2020-03-30 14:54:35.050 DOMESTIC DISTURBANCE
20-0304185 315 HUBBARD RD 2020-03-30 14:52:21.860 ATTEMPT TO CONTACT
20-0304184 3034 DONNELL RIDGE RD 2020-03-30 14:26:47.480 DOMESTIC DISTURBANCE
20-0304182 1600 DUKE ST 2020-03-30 14:23:57.947 ALARM
20-0304180 545 SKYLINE DR 2020-03-30 14:20:34.607 SUSPICIOUS PERSON
20-0304179 825 OAK ST 2020-03-30 14:12:13.483 SUPPLEMENT REPORT CALL
20-0304178 20-03104 3130 DAVE WARD DR 2020-03-30 14:11:57.563 CRIMINAL MISCHIEF
20-0304177 1999 COUNTRY CLUB RD 2020-03-30 14:07:27.447 TRAFFIC PROBLEM-CONTROL
20-0304176 1919 ROBINS ST 2020-03-30 14:05:18.497 CIVIL MATTER
20-0304175 20-03103 1911 CLIFTON ST 2020-03-30 13:58:58.330 ACCIDENT - PROPERTY DAMAGE
20-0304174 3800 DAVE WARD DR 2020-03-30 13:18:24.787 DOMESTIC DISTURBANCE
20-0304173 2020-03-30 13:06:21.487 ATTEMPT TO CONTACT
20-0304172 20-03102 1804 HUTTO ST 2020-03-30 12:52:23.667 BREAKING OR ENTERING
20-0304171 3501 COLLEGE AV 2020-03-30 12:20:09.353 CIVIL MATTER
20-0304168 25 TAYLOR CIR 2020-03-30 12:01:45.270 SERVING SUBPOENA
20-0304166 4054 TYLER ST 2020-03-30 11:59:36.650 RECKLESS DRIVER
20-0304165 20-03101 825 OAK ST 2020-03-30 11:59:13.043 FORGERY
20-0304163 20-03100 908 E OAK ST 2020-03-30 11:12:21.887 ACCIDENT - PROPERTY DAMAGE
20-0304161 7 STERNWHEEL DR 2020-03-30 11:01:19.310 SUSPICIOUS VEHICLE
20-0304160 1525 CLIFTON ST 2020-03-30 10:53:01.293 CHECK ON THE WELFARE
20-0304157 20-03099 2585 DONAGHEY AV 2020-03-30 10:06:45.250 THEFT OF PROPERTY
20-0304154 867 FENDLEY DR 2020-03-30 09:40:30.807 SUPPLEMENT REPORT CALL
20-0304152 20-03098 315 HUBBARD RD 2020-03-30 09:16:13.230 THEFT OF PROPERTY
20-0304151 867 FENDLEY DR 2020-03-30 08:52:54.560 SUPPLEMENT REPORT CALL
20-0304150 1500 MUSEUM RD 2020-03-30 08:51:07.180 ATTEMPT TO CONTACT
20-0304148 205 SOUTH HAMPTON DR 2020-03-30 08:19:46.317 INTERFERENCE WITH CUSTODY
20-0304147 540 UNITED DR 2020-03-30 08:17:56.823 ALARM - BANK
20-0304146 675 ROBINS ST 2020-03-30 07:53:26.637 CHECKING VEHICLE
20-0304143 20-03097 2007 CREEKWOOD DR 2020-03-30 07:34:23.457 RUNAWAY
20-0304142 825 OAK ST 2020-03-30 07:13:21.507 SHOPLIFTING
20-0304141 1700 HUTTO ST 2020-03-30 05:30:53.933 CHECK ON THE WELFARE
20-0304140 867 FENDLEY DR 2020-03-30 02:55:17.900 SUPPLEMENT REPORT CALL
20-0304139 340 S BARIDON ST 2020-03-30 02:40:25.913 CHECKING VEHICLE
20-0304137 300 S DONAGHEY AV 2020-03-30 02:30:32.690 CHECKING PERSON
20-0304136 475 ROBINS ST 2020-03-30 02:06:06.093 PURSUIT DRILL
20-0304135 1805 OLD MILITARY RD 2020-03-30 01:59:19.673 CHECKING VEHICLE
20-0304134 1565 BLUE LUCERNE DR 2020-03-30 01:51:48.263 CHECKING VEHICLE
20-0304131 20-03096 1350 CHOATE ST 2020-03-30 00:45:21.027 DOMESTIC DISTURBANCE
20-0304130 1770 LONGFELLOW DR 2020-03-30 00:37:08.783 CHECKING BUILDING
20-0304129 20-03095 867 FENDLEY DR 2020-03-30 00:31:22.480 RUNAWAY
20-0304127 20-03094 1770 LONGFELLOW DR 2020-03-29 23:51:16.730 LOST PROPERTY
20-0304125 1 CADRON SETTLEMENT PARK RD 2020-03-29 23:26:10.150 CHECKING BUILDING
20-0304124 500 ELSINGER BLVD 2020-03-29 23:22:46.253 ALARM
20-0304123 2810 WHIRLWIND DR 2020-03-29 23:22:02.993 DISTURBANCE
20-0304122 20-03093 124 I40EB 2020-03-29 23:17:58.497 ACCIDENT - PROPERTY DAMAGE
20-0304121 375 MONROE ST 2020-03-29 22:31:43.500 CHECK ON THE WELFARE
20-0304120 20-03092 715 INGRAM ST 2020-03-29 22:27:52.607 HARASSING COMMUNICATIONS
20-0304119 2020-03-29 22:07:37.927 ATTEMPT TO CONTACT
20-0304117 160 GRAND FALLS 2020-03-29 21:31:34.413 911 HANGUP CALL
20-0304113 20-03091 340 S BARIDON ST 2020-03-29 20:38:08.033 PROPERTY DAMAGE
20-0304112 20-03090 1122 GUM ST 2020-03-29 20:35:13.310 THEFT OF PROPERTY
20-0304111 550 S AMITY RD 2020-03-29 20:19:42.917 SUSPICIOUS VEHICLE
20-0304110 1105 SKYLINE DR 2020-03-29 20:16:26.397 SUSPICIOUS PERSON
20-0304109 20-03089 1050 SPENCER ST 2020-03-29 20:14:23.020 FRAUD
20-0304108 20-03087 1839 TYLER ST 2020-03-29 20:14:01.777 THEFT OF PROPERTY
20-0304107 2125 HARKRIDER ST 2020-03-29 20:07:02.737 CHECKING VEHICLE
20-0304106 20-03088 1601 DAVIS ST 2020-03-29 20:05:30.847 BATTERY REPORT
20-0304105 300 S DONAGHEY AV 2020-03-29 19:55:30.070 LOUD NOISE-MUSIC
20-0304104 1105 SKYLINE DR 2020-03-29 19:25:04.937 SUSPICIOUS PERSON
20-0304103 2000 KEATHLEY DR 2020-03-29 19:17:05.840 LOUD NOISE-MUSIC
20-0304102 475 ROBINS ST 2020-03-29 19:14:52.290 UNKNOWN TROUBLE
20-0304101 20-03085 2235 DAVE WARD DR 2020-03-29 19:10:08.273 ACCIDENT - PROPERTY DAMAGE
20-0304100 17 COVEWOOD DR 2020-03-29 19:07:57.917 CHECK ON THE WELFARE
20-0304099 2000 KEATHLEY DR 2020-03-29 18:45:23.617 LOUD NOISE-MUSIC
20-0304098 20-03084 2916 ADAM ST 2020-03-29 18:43:41.660 BREAKING OR ENTERING
20-0304097 7 WASSON RD 2020-03-29 18:26:28.213 ALARM
20-0304096 2340 CHARLIE DAYER DR 2020-03-29 18:10:54.573 CITY ORDINANCE VIOLATION
20-0304095 2340 CHARLIE DAYER DR 2020-03-29 18:08:19.380 ATTEMPT TO CONTACT
20-0304094 2505 E OAK ST 2020-03-29 18:07:08.280 RECKLESS DRIVER
20-0304093 2050 DAVE WARD DR 2020-03-29 17:42:44.093 DISTURBANCE
20-0304092 2150 HARKRIDER ST 2020-03-29 17:28:09.897 FRAUD
20-0304091 1045 CHAMPIONS DR 2020-03-29 16:08:16.950 CIVIL STAND BY
20-0304089 1826 HOGAN LN 2020-03-29 15:53:25.023 CHECK ON THE WELFARE
20-0304088 3115 SUGAR MAPLE RIDGE 2020-03-29 15:45:39.690 DOMESTIC DISTURBANCE
20-0304087 20-03083 1505 OLD MORRILTON HWY 2020-03-29 15:45:13.233 ACCIDENT - PROPERTY DAMAGE
20-0304086 212 WILLOW ST 2020-03-29 15:26:22.620 BURGLARY
20-0304085 1855 JOHN BRYANT DR 2020-03-29 15:08:17.643 ALARM - HOLD UP or PANIC
20-0304084 799 HUNTINGTON LN 2020-03-29 15:01:02.503 SHOTS FIRED
20-0304083 1526 SOUTH BLVD 2020-03-29 14:52:58.337 CITIZEN ASSIST
20-0304082 150 E OAK ST 2020-03-29 14:37:40.443 CHECKING PERSON
20-0304081 29 KENSINGTON DR 2020-03-29 14:05:39.290 SHOTS FIRED
20-0304080 2125 HARKRIDER ST 2020-03-29 13:54:49.610 ALARM
20-0304079 3120 BLANEY HILL RD 2020-03-29 13:40:39.600 DISTURBANCE
20-0304078 20-03081 2170 ROSEMARY DR 2020-03-29 13:35:43.533 HARASSMENT
20-0304077 20-03082 2929 JOANNA DR 2020-03-29 13:29:21.237 BREAKING OR ENTERING
20-0304076 1611 HARDY ST 2020-03-29 13:19:07.380 SHOTS FIRED
20-0304075 26 TUCKER CREEK RD 2020-03-29 12:39:20.100 ATTEMPT TO CONTACT
20-0304074 20-03080 1045 CHAMPIONS DR 2020-03-29 12:31:49.270 DOMESTIC DISTURBANCE
20-0304072 20-03078 1155 SKYLINE DR 2020-03-29 12:12:33.657 THEFT OF PROPERTY
20-0304071 207 WILLOW ST 2020-03-29 11:57:51.317 SUSPICIOUS VEHICLE
20-0304070 102 OAK ST 2020-03-29 11:43:16.427 CITY ORDINANCE VIOLATION
20-0304067 1925 AMELIA DR 2020-03-29 10:57:05.880 ANIMAL BITE
20-0304064 20-03077 2503 W MARTIN ST 2020-03-29 10:30:09.400 BREAKING OR ENTERING
20-0304062 500 ELSINGER BLVD 2020-03-29 10:16:53.187 BREAKING OR ENTERING
20-0304061 8 TUCKER CREEK RD 2020-03-29 09:42:57.620 AGENCY ASSIST
20-0304059 2125 DAVE WARD DR 2020-03-29 08:40:10.570 CHECK ON THE WELFARE
20-0304057 2665 DONAGHEY AV 2020-03-29 08:34:34.557 ALARM
20-0304055 20-03076 1305 SUNSET DR 2020-03-29 07:48:26.670 TERRORISTIC THREATENING
20-0304054 1308 BELLAIRE DR 2020-03-29 05:53:38.093 ATTEMPT TO CONTACT
20-0304053 2080 BROADVIEW AV 2020-03-29 04:31:55.327 SUSPICIOUS PERSON
20-0304052 2302 COLLEGE AV 2020-03-29 04:22:25.163 CITIZEN ASSIST
20-0304051 2510 PRINCE ST 2020-03-29 04:09:11.993 ALARM
20-0304049 2845 CARL STUART ST 2020-03-29 02:40:46.133 CHECKING PERSON
20-0304048 600 WESTHAVEN DR 2020-03-29 02:32:36.557 ATTEMPT TO CONTACT
20-0304047 20-03075 825 OAK ST 2020-03-29 02:24:03.410 ROBBERY
20-0304046 20-03074 1215 TRENTON DR 2020-03-29 01:50:57.650 TRESPASSING
20-0304045 3100 IRBY DR 2020-03-29 01:31:51.777 DOMESTIC DISTURBANCE
20-0304044 825 OAK ST 2020-03-29 01:16:40.627 SUSPICIOUS PERSON
20-0304043 1910 JOHNSTON AV 2020-03-29 01:04:49.543 LOUD NOISE-MUSIC
20-0304042 1200 THOMAS G WILSON DR 2020-03-29 00:45:04.757 ALARM
20-0304041 3183 AMANDA DR 2020-03-29 00:41:50.560 CHECKING VEHICLE
20-0304040 1570 S SALEM RD 2020-03-29 00:34:46.300 DOMESTIC DISTURBANCE
20-0304038 260 SALEM RD 2020-03-29 00:09:59.030 CHECKING VEHICLE
20-0304037 2401 COLLEGE AV 2020-03-29 00:00:38.213 CHECKING PERSON
Call Number Case Number Address Call Time Incident Type

General Contacts

POLICE HEADQUARTERS
1105 Prairie Street
Conway, AR 72032

Conway Police Department


  911 (EMERGENCIES ONLY)

  501.450.6120 (non-emergency)

ANONYMOUS TIPS
 Leave a message at 501.450.6135
 Text CONWAY and your tip to 274637 (CRIMES) Click for an Example

   

City of Conway

We, the members of the Conway Police Department, are committed to protecting and serving the citizens of Conway, Arkansas. That is our highest calling, as we pledge to join hands with others in carrying out our sworn duty to uphold the law.

Chief Jody Spradlin

Latest Tweets